This demonstration page uses our WeatherBlox Daily Observations layout. Learn more.

Left ArrowRight Arrow

40.92945, -100.16068

Hourly Observations for April 17, 2019

Temp ( °F °C ) Dew Point ( °F °C ) Humidity (%) Winds ( mph kmh ) Pressure ( in mb ) Visibility ( mi km ) Precip ( " mm )
12:15 am 00:15 Clear 54 12.3 49 9.3 82 82 E 5 7 29.65 1004 10 16 0.00 0.00
12:35 am 00:35 Clear with Nearby Thunderstorms 55 12.7 49 9.5 81 81 SE 5 7 29.66 1004 10 16 0.00 0.00
12:55 am 00:55 Clear 58 14.4 51 10.6 78 78 ESE 9 15 29.62 1003 10 16 0.00 0.00
1:15 am 01:15 Clear 58 14.5 51 10.7 78 78 SE 6 9 29.62 1003 10 16 0.00 0.00
1:35 am 01:35 Clear 57 13.8 51 10.6 81 81 SE 3 6 29.63 1003 10 16 0.00 0.00
1:55 am 01:55 Clear 57 13.7 51 10.8 83 83 Calm 29.64 1004 10 16 0.00 0.00
2:15 am 02:15 Partly Cloudy 55 12.6 50 9.8 83 83 Calm 29.65 1004 10 16 0.00 0.00
2:35 am 02:35 Clear 53 11.8 49 9.7 87 87 Calm 29.63 1004 10 16 0.00 0.00
2:55 am 02:55 Clear 53 11.5 50 9.8 89 89 Calm 29.63 1003 10 16 0.00 0.00
3:15 am 03:15 Partly Cloudy 53 11.5 49 9.7 89 89 NW 6 9 29.63 1003 10 16 0.00 0.00
3:35 am 03:35 Partly Cloudy 54 12 50 10.2 89 89 WNW 14 22 29.63 1003 10 16 0.00 0.00
3:55 am 03:55 Mostly Cloudy 55 12.7 50 10 84 84 WNW 8 13 29.64 1004 10 16 0.00 0.00
4:15 am 04:15 Cloudy 55 13 49 9.7 81 81 NW 9 15 29.63 1004 10 16 0.00 0.00
4:35 am 04:35 Partly Cloudy with Light Rain 55 12.5 49 9.5 82 82 NNW 17 28 29.60 1002 10 16 0.00 0.00
4:55 am 04:55 Mostly Cloudy 55 13 49 9.7 81 81 N 16 26 29.55 1001 10 16 0.00 0.00
5:15 am 05:15 Mostly Cloudy 56 13.1 49 9.5 79 79 S 12 19 29.61 1003 10 16 0.00 0.00
5:35 am 05:35 Partly Cloudy 56 13.5 49 9.5 77 77 Calm 29.61 1003 10 16 0.00 0.00
5:55 am 05:55 Clear 54 12.1 49 9.3 83 83 ESE 3 6 29.61 1003 10 16 0.00 0.00
6:15 am 06:15 Partly Cloudy 55 12.5 49 9.5 82 82 Calm 29.61 1003 10 16 0.00 0.00
6:35 am 06:35 Mostly Cloudy 55 12.5 49 9.5 82 82 NE 3 6 29.62 1003 10 16 0.00 0.00
6:55 am 06:55 Cloudy with Nearby Thunderstorms 53 11.9 49 9.6 86 86 NNE 3 6 29.65 1004 10 16 0.00 0.00
7:15 am 07:15 Cloudy with Light Rain 54 12.2 49 9.2 82 82 NW 6 9 29.69 1005 10 16 0.00 0.00
7:35 am 07:35 Mostly Cloudy 53 11.8 48 8.7 81 81 NNW 6 9 29.68 1005 10 16 0.00 0.00
7:55 am 07:55 Partly Cloudy 54 12 47 8.6 80 80 NNE 5 7 29.68 1005 10 16 0.00 0.00
8:15 am 08:15 Partly Cloudy 54 12.3 48 8.7 79 79 Calm 29.69 1005 10 16 0.00 0.00
8:35 am 08:35 Partly Cloudy 55 12.5 47 8.4 76 76 ENE 3 6 29.69 1005 10 16 0.00 0.00
8:55 am 08:55 Sunny 55 12.7 47 8.4 75 75 NE 3 6 29.69 1005 10 16 0.00 0.00
9:15 am 09:15 Sunny 56 13.4 46 8 70 70 NW 6 9 29.68 1005 10 16 0.00 0.00
9:35 am 09:35 Sunny 58 14.4 47 8.6 68 68 NW 8 13 29.69 1005 10 16 0.00 0.00
9:55 am 09:55 Sunny 61 15.9 48 9 64 64 NNW 7 11 29.68 1005 10 16 0.00 0.00
10:15 am 10:15 Sunny 64 17.5 48 9 58 58 NNW 23 37 29.67 1005 10 16 0.00 0.00
10:35 am 10:35 Partly Cloudy with Nearby Thunderstorms 62 16.9 47 8.4 58 58 NNW 21 33 29.70 1006 10 16 0.00 0.00
10:55 am 10:55 Partly Cloudy 65 18.5 49 9.3 55 55 NNW 21 33 29.69 1005 10 16 0.00 0.00
11:15 am 11:15 Mostly Cloudy 64 17.7 49 9.6 59 59 NNW 23 37 29.71 1006 10 16 0.00 0.00
11:35 am 11:35 Mostly Cloudy 63 17.2 49 9.3 60 60 NNW 25 41 29.73 1007 10 16 0.00 0.00
11:55 am 11:55 Cloudy 62 16.4 49 9.2 63 63 NW 16 26 29.74 1007 10 16 0.00 0.00
12:15 pm 12:15 Partly Cloudy 64 17.6 48 9.1 58 58 NNW 22 35 29.73 1007 10 16 0.00 0.00
12:35 pm 12:35 Partly Cloudy 66 18.7 48 9.1 54 54 NW 22 35 29.72 1007 10 16 0.00 0.00
12:55 pm 12:55 Partly Cloudy 63 17.4 47 8.4 56 56 NW 31 50 29.76 1008 10 16 0.00 0.00
1:15 pm 13:15 Mostly Cloudy 62 16.5 46 7.7 56 56 NNW 25 41 29.77 1008 10 16 0.00 0.00
1:35 pm 13:35 Mostly Cloudy 61 15.9 45 7.1 56 56 NNW 24 39 29.78 1008 10 16 0.00 0.00
1:55 pm 13:55 Mostly Cloudy 60 15.7 44 6.9 56 56 NNW 26 43 29.78 1008 10 16 0.00 0.00
2:15 pm 14:15 Partly Cloudy 61 16 44 6.4 53 53 NNW 29 46 29.77 1008 10 16 0.00 0.00
2:35 pm 14:35 Sunny 61 16.3 43 6 51 51 NNW 23 37 29.75 1008 10 16 0.00 0.00
2:55 pm 14:55 Sunny 63 17.2 42 5.4 46 46 NNW 25 41 29.75 1007 10 16 0.00 0.00
3:15 pm 15:15 Sunny 64 17.9 41 5.1 43 43 N 25 41 29.74 1007 10 16 0.00 0.00
3:35 pm 15:35 Sunny 65 18.5 40 4.6 40 40 N 24 39 29.73 1007 10 16 0.00 0.00
3:55 pm 15:55 Sunny 65 18.3 39 3.9 39 39 NNW 25 41 29.72 1006 10 16 0.00 0.00
4:15 pm 16:15 Sunny 65 18.4 38 3.5 37 37 NNW 24 39 29.72 1006 10 16 0.00 0.00
4:35 pm 16:35 Sunny 65 18.4 38 3.4 37 37 N 20 31 29.72 1006 10 16 0.00 0.00
4:55 pm 16:55 Sunny 65 18.5 37 2.6 35 35 N 22 35 29.72 1006 10 16 0.00 0.00
5:15 pm 17:15 Sunny 66 18.8 37 2.5 34 34 NNW 26 43 29.71 1006 10 16 0.00 0.00
5:35 pm 17:35 Sunny 64 17.5 35 1.8 35 35 N 24 39 29.72 1007 10 16 0.00 0.00
5:55 pm 17:55 Sunny 65 18.1 34 1.2 32 32 NNW 21 33 29.73 1007 10 16 0.00 0.00
6:15 pm 18:15 Sunny 65 18.1 35 1.8 34 34 N 23 37 29.73 1007 10 16 0.00 0.00
6:35 pm 18:35 Sunny 64 17.8 34 1.3 33 33 N 21 33 29.74 1007 10 16 0.00 0.00
6:55 pm 18:55 Sunny 63 17.4 33 0.4 32 32 N 22 35 29.76 1008 7 11 0.00 0.00
7:15 pm 19:15 Hazy 62 16.5 36 2.1 38 38 NNE 16 26 29.76 1008 4 6 0.00 0.00
7:35 pm 19:35 Sunny 60 15.7 36 2 40 40 N 13 20 29.78 1008 10 16 0.00 0.00
7:55 pm 19:55 Sunny 59 15.1 36 2.3 42 42 N 15 24 29.80 1009 10 16 0.00 0.00
8:15 pm 20:15 Sunny 57 14 36 2.3 45 45 NNE 12 19 29.81 1010 10 16 0.00 0.00
8:35 pm 20:35 Clear 56 13.2 36 2.2 48 48 NNE 12 19 29.82 1010 10 16 0.00 0.00
8:55 pm 20:55 Clear 54 12.3 37 2.5 51 51 NNE 10 17 29.85 1011 10 16 0.00 0.00
9:15 pm 21:15 Clear 51 10.5 37 2.6 58 58 NE 5 7 29.88 1012 10 16 0.00 0.00
9:35 pm 21:35 Clear 51 10.3 37 2.5 59 59 NNE 7 11 29.88 1012 10 16 0.00 0.00
9:55 pm 21:55 Clear 49 9.5 37 2.6 62 62 N 9 15 29.89 1012 10 16 0.00 0.00
10:15 pm 22:15 Clear 49 9.6 37 2.5 62 62 NNE 9 15 29.88 1012 10 16 0.00 0.00
10:35 pm 22:35 Clear 48 8.7 36 2.3 64 64 NNE 8 13 29.90 1013 10 16 0.00 0.00
10:55 pm 22:55 Clear 45 7.1 36 2 70 70 N 7 11 29.91 1013 10 16 0.00 0.00
11:15 pm 23:15 Clear 44 6.5 36 2 73 73 N 9 15 29.91 1013 10 16 0.00 0.00
11:35 pm 23:35 Clear 42 5.5 35 1.5 76 76 N 7 11 29.93 1014 10 16 0.00 0.00
11:55 pm 23:55 Clear 41 4.8 34 1.2 78 78 NNW 10 17 29.94 1014 10 16 0.00 0.00

Powered by AerisWeather